Weather History for Dayton, OH

Change the Weather History Date:

Thursday, November 1, 2012

  Actual Average Record
Temperature  
Mean Temperature 44 °F 49 °F  
Max Temperature 51 °F 58 °F 79 °F (1950)
Min Temperature 36 °F 40 °F 20 °F (1906)
Degree Days  
Heating Degree Days 21 16  
Month to date heating degree days 21 16  
Since 1 July heating degree days 521 463  
Cooling Degree Days 0 0  
Month to date cooling degree days 0 0  
Year to date cooling degree days 1264 891  
Moisture  
Dew Point 32 °F    
Average Humidity 66    
Maximum Humidity 92    
Minimum Humidity 39    
Precipitation  
Precipitation T in 0.11 in 1.64 in (1956)
Month to date precipitation T 0.11  
Year to date precipitation 28.03 34.65  
Snow  
Snow 0.00 in 0.00 in 0.80 in (1954)
Month to date snowfall 0.0 0.0  
Since 1 July snowfall 0.7 0.4  
Since 1 September snowfall 0.7 0.4  
Snow Depth 0.00 in    
Sea Level Pressure  
Sea Level Pressure 29.83 in    
Wind  
Wind Speed 12 mph (West)    
Max Wind Speed 22 mph    
Max Gust Speed 28 mph    
Visibility 10 miles    
Events Rain    
T = Trace of Precipitation, MM = Missing Value Source: NWS Daily Summary

Daily Weather History Graph

Daily Weather History Graph

Search for Another Location

Airport:

Trip Planner

Search our weather history database for the weather conditions in past years. The results will help you decide how hot, cold, wet, or windy it might be!

Date:

Astronomy

Nov. 01, 2012 Rise Set
Actual Time 8:06 AM EDT 6:33 PM EDT
Civil Twilight 7:38 AM EDT 7:02 PM EDT
Nautical Twilight 7:06 AM EDT 7:34 PM EDT
Astronomical Twilight 6:34 AM EDT 8:05 PM EDT
Moon 8:30 PM EDT (11/1) 10:38 AM EDT (11/1)
Length of Visible Light 11h 23m
Length of Day
10h 27m
Waning Gibbous, 93% of the Moon is Illuminated
Nov 1
Waning Gibbous
Nov 6
Last Quarter
Nov 13
New
Nov 20
First Quarter
Nov 28
Full

Hourly Weather History & Observations

Time (EDT) Temp. Windchill Dew Point Humidity Pressure Visibility Wind Dir Wind Speed Gust Speed Precip Events Conditions
12:20 AM 39.2 °F 31.2 °F 35.6 °F 87% 29.79 in 9.0 mi West 13.8 mph - 0.00 in Rain Light Rain
12:56 AM 39.0 °F 31.4 °F 37.0 °F 93% 29.81 in 10.0 mi West 12.7 mph - 0.01 in Rain Light Rain
1:56 AM 39.0 °F 31.8 °F 36.0 °F 89% 29.81 in 10.0 mi West 11.5 mph - 0.00 in   Overcast
2:11 AM 39.2 °F 32.5 °F 35.6 °F 87% 29.79 in 10.0 mi West 10.4 mph - N/A   Overcast
2:56 AM 39.9 °F 33.4 °F 36.0 °F 86% 29.80 in 10.0 mi West 10.4 mph - N/A   Overcast
3:03 AM 39.2 °F 31.6 °F 35.6 °F 87% 29.78 in 10.0 mi West 12.7 mph - N/A   Overcast
3:56 AM 39.9 °F 32.9 °F 35.1 °F 83% 29.80 in 10.0 mi West 11.5 mph - 0.00 in   Overcast
4:56 AM 39.9 °F 32.9 °F 35.1 °F 83% 29.80 in 10.0 mi West 11.5 mph - N/A   Overcast
5:56 AM 39.9 °F 33.4 °F 35.1 °F 83% 29.81 in 10.0 mi West 10.4 mph - N/A   Overcast
6:56 AM 41.0 °F 33.5 °F 35.6 °F 81% 29.80 in 10.0 mi West 13.8 mph - N/A   Overcast
7:56 AM 37.4 °F 29.8 °F 33.8 °F 87% 29.80 in 10.0 mi West 11.5 mph - N/A   Partly Cloudy
8:56 AM 37.9 °F 30.5 °F 30.9 °F 76% 29.84 in 10.0 mi West 11.5 mph - N/A   Partly Cloudy
9:56 AM 39.9 °F 32.1 °F 30.9 °F 70% 29.85 in 10.0 mi West 13.8 mph - N/A   Partly Cloudy
10:56 AM 42.1 °F 35.2 °F 32.0 °F 67% 29.86 in 10.0 mi West 12.7 mph - N/A   Scattered Clouds
11:56 AM 44.6 °F 37.4 °F 32.0 °F 61% 29.84 in 10.0 mi WNW 16.1 mph 24.2 mph N/A   Scattered Clouds
12:56 PM 46.0 °F 39.6 °F 32.0 °F 58% 29.86 in 10.0 mi WNW 15.0 mph - N/A   Scattered Clouds
1:56 PM 46.9 °F - 32.0 °F 56% 29.83 in 10.0 mi West 15.0 mph - N/A   Scattered Clouds
2:56 PM 50.0 °F - 30.0 °F 46% 29.82 in 10.0 mi WNW 17.3 mph 24.2 mph N/A   Scattered Clouds
3:56 PM 48.9 °F - 25.0 °F 39% 29.81 in 10.0 mi WNW 13.8 mph 23.0 mph N/A   Mostly Cloudy
4:56 PM 50.0 °F - 27.0 °F 41% 29.82 in 10.0 mi West 17.3 mph - N/A   Scattered Clouds
5:56 PM 48.9 °F - 28.0 °F 44% 29.82 in 10.0 mi West 11.5 mph - N/A   Scattered Clouds
6:56 PM 46.0 °F 40.2 °F 28.9 °F 51% 29.83 in 10.0 mi West 12.7 mph - N/A   Scattered Clouds
7:56 PM 45.0 °F 41.2 °F 30.0 °F 56% 29.84 in 10.0 mi West 6.9 mph - N/A   Overcast
8:56 PM 45.0 °F 40.1 °F 30.0 °F 56% 29.86 in 10.0 mi West 9.2 mph - N/A   Overcast
9:56 PM 46.0 °F 41.0 °F 28.9 °F 51% 29.86 in 10.0 mi West 10.4 mph - N/A   Overcast
10:56 PM 46.0 °F 42.5 °F 30.0 °F 54% 29.86 in 10.0 mi West 6.9 mph - N/A   Overcast
11:56 PM 43.0 °F 39.5 °F 30.9 °F 62% 29.87 in 10.0 mi West 5.8 mph - N/A   Overcast